Change the Weather History Date:

Tuesday, October 22, 2013

  Actual Average Record
Temperature  
Mean Temperature 32 °F -  
Max Temperature 37 °F 45 °F 68 °F (1998)
Min Temperature 28 °F 30 °F 21 °F (2001)
Degree Days  
Heating Degree Days 32    
Moisture  
Dew Point 25 °F    
Average Humidity 75    
Maximum Humidity 93    
Minimum Humidity 52    
Precipitation  
Precipitation 0.00 in - - ()
Sea Level Pressure  
Sea Level Pressure 29.93 in    
Wind  
Wind Speed 2 mph (NW)    
Max Wind Speed 10 mph    
Max Gust Speed 16 mph    
Visibility 10 miles    
Events Snow    
Averages and records for this station are not official NWS values.
T = Trace of Precipitation, MM = Missing Value Source: NWS Daily Summary

Daily Weather History Graph

Daily Weather History Graph

Search for Another Location

Airport or City:

Trip Planner

Search our weather history database for the weather conditions in past years. The results will help you decide how hot, cold, wet, or windy it might be!

Date:

Astronomy

Oct. 22, 2013 Rise Set
Actual Time 7:41 AM CDT 6:09 PM CDT
Civil Twilight 7:09 AM CDT 6:41 PM CDT
Nautical Twilight 6:33 AM CDT 7:17 PM CDT
Astronomical Twilight 5:57 AM CDT 7:53 PM CDT
Moon 8:38 PM CDT (10/22) 11:22 AM CDT (10/22)
Length of Visible Light 11h 31m
Length of Day
10h 27m
Waning Gibbous, 86% of the Moon is Illuminated
Oct 22
Waning Gibbous
Oct 26
Last Quarter
Nov 3
New
Nov 9
First Quarter
Nov 17
Full

Hourly Weather History & Observations

Time (CDT) Temp. Windchill Dew Point Humidity Pressure Visibility Wind Dir Wind Speed Gust Speed Precip Events Conditions
12:13 AM 32.0 °F - 28.4 °F 87% 29.85 in 10.0 mi Calm Calm - N/A   Overcast
12:33 AM 32.0 °F - 28.4 °F 87% 29.86 in 10.0 mi Calm Calm - N/A   Overcast
12:53 AM 32.0 °F 28.7 °F 28.4 °F 87% 29.86 in 10.0 mi North 3.5 mph - N/A   Overcast
1:13 AM 32.0 °F 27.5 °F 26.6 °F 80% 29.87 in 10.0 mi NW 4.6 mph - N/A   Overcast
1:33 AM 32.0 °F - 28.4 °F 87% 29.87 in 10.0 mi Calm Calm - N/A   Overcast
1:53 AM 32.0 °F - 26.6 °F 80% 29.87 in 10.0 mi Calm Calm - N/A   Overcast
2:13 AM 32.0 °F 28.7 °F 26.6 °F 80% 29.88 in 10.0 mi NW 3.5 mph - N/A   Overcast
2:33 AM 30.2 °F - 26.6 °F 86% 29.88 in 10.0 mi Calm Calm - N/A   Overcast
2:53 AM 30.2 °F 26.7 °F 26.6 °F 86% 29.88 in 10.0 mi NNW 3.5 mph - N/A   Overcast
3:13 AM 30.2 °F - 26.6 °F 86% 29.88 in 10.0 mi Calm Calm - N/A   Overcast
3:33 AM 30.2 °F - 26.6 °F 86% 29.88 in 10.0 mi Calm Calm - N/A   Overcast
3:53 AM 30.2 °F - 26.6 °F 86% 29.89 in 10.0 mi Calm Calm - N/A   Overcast
4:13 AM 30.2 °F - 26.6 °F 86% 29.89 in 10.0 mi Calm Calm - N/A   Overcast
4:33 AM 30.2 °F - 26.6 °F 86% 29.90 in 10.0 mi Calm Calm - N/A   Overcast
4:53 AM 30.2 °F - 26.6 °F 86% 29.90 in 10.0 mi Calm Calm - N/A   Overcast
5:13 AM 30.2 °F - 24.8 °F 80% 29.90 in 10.0 mi Calm Calm - N/A   Overcast
5:33 AM 30.2 °F - 24.8 °F 80% 29.90 in 10.0 mi Calm Calm - N/A   Overcast
5:53 AM 30.2 °F - 24.8 °F 80% 29.90 in 10.0 mi Calm Calm - N/A   Overcast
6:13 AM 30.2 °F - 24.8 °F 80% 29.91 in 10.0 mi Calm Calm - N/A   Overcast
6:33 AM 30.2 °F - 24.8 °F 80% 29.91 in 10.0 mi Calm Calm - N/A   Overcast
6:53 AM 30.2 °F - 23.0 °F 75% 29.92 in 10.0 mi Calm Calm - N/A   Overcast
7:13 AM 30.2 °F - 23.0 °F 75% 29.92 in 10.0 mi Calm Calm - N/A   Overcast
7:33 AM 30.2 °F - 23.0 °F 75% 29.92 in 10.0 mi Calm Calm - N/A   Overcast
7:53 AM 30.2 °F - 23.0 °F 75% 29.93 in 10.0 mi Calm Calm - N/A   Overcast
8:13 AM 30.2 °F - 23.0 °F 75% 29.94 in 10.0 mi Calm Calm - N/A   Overcast
8:33 AM 30.2 °F - 24.8 °F 80% 29.94 in 10.0 mi Calm Calm - N/A   Overcast
8:53 AM 30.2 °F - 23.0 °F 75% 29.94 in 10.0 mi Calm Calm - N/A   Overcast
9:13 AM 30.2 °F - 23.0 °F 75% 29.95 in 10.0 mi Calm Calm - N/A   Overcast
9:33 AM 32.0 °F 28.7 °F 24.8 °F 75% 29.95 in 10.0 mi North 3.5 mph - N/A   Overcast
9:53 AM 32.0 °F 28.7 °F 24.8 °F 75% 29.95 in 10.0 mi NW 3.5 mph - N/A   Mostly Cloudy
10:13 AM 30.2 °F - 24.8 °F 80% 29.96 in 10.0 mi Calm Calm - N/A   Mostly Cloudy
10:33 AM 32.0 °F - 24.8 °F 75% 29.96 in 10.0 mi Calm Calm - N/A   Overcast
10:53 AM 32.0 °F 28.7 °F 24.8 °F 75% 29.96 in 10.0 mi NW 3.5 mph - N/A   Overcast
11:13 AM 33.8 °F 29.6 °F 24.8 °F 70% 29.97 in 10.0 mi NW 4.6 mph - N/A   Overcast
11:34 AM 33.8 °F 30.8 °F 24.8 °F 70% 29.97 in 10.0 mi North 3.5 mph - N/A   Overcast
11:53 AM 35.6 °F 29.9 °F 24.8 °F 65% 29.97 in 10.0 mi WNW 6.9 mph - N/A   Mostly Cloudy
12:13 PM 33.8 °F 29.6 °F 24.8 °F 70% 29.97 in 10.0 mi NW 4.6 mph - N/A   Mostly Cloudy
12:34 PM 33.8 °F 29.6 °F 23.0 °F 65% 29.96 in 10.0 mi WNW 4.6 mph - N/A   Scattered Clouds
12:53 PM 33.8 °F 28.6 °F 23.0 °F 65% 29.96 in 10.0 mi WNW 5.8 mph - N/A   Scattered Clouds
1:13 PM 35.6 °F - 23.0 °F 60% 29.96 in 10.0 mi Calm Calm - N/A   Mostly Cloudy
1:33 PM 37.4 °F 33.8 °F 23.0 °F 56% 29.95 in 10.0 mi NW 4.6 mph - N/A   Mostly Cloudy
1:53 PM 37.4 °F 32.8 °F 24.8 °F 60% 29.95 in 10.0 mi WNW 5.8 mph - N/A   Mostly Cloudy
2:13 PM 37.4 °F 34.9 °F 23.0 °F 56% 29.95 in 10.0 mi NW 3.5 mph - N/A   Mostly Cloudy
2:33 PM 37.4 °F - 21.2 °F 52% 29.94 in 10.0 mi Calm Calm - N/A   Overcast
2:53 PM 35.6 °F 32.8 °F 21.2 °F 56% 29.95 in 10.0 mi WNW 3.5 mph - N/A   Overcast
3:14 PM 35.6 °F - 21.2 °F 56% 29.94 in 10.0 mi Calm Calm - N/A   Overcast
3:33 PM 35.6 °F - 21.2 °F 56% 29.94 in 10.0 mi Calm Calm - N/A   Overcast
3:53 PM 35.6 °F 32.8 °F 23.0 °F 60% 29.94 in 10.0 mi West 3.5 mph - N/A   Overcast
4:13 PM 35.6 °F - 21.2 °F 56% 29.94 in 10.0 mi Calm Calm - N/A   Overcast
4:33 PM 35.6 °F 32.8 °F 21.2 °F 56% 29.94 in 10.0 mi WNW 3.5 mph - N/A   Overcast
4:53 PM 35.6 °F 31.7 °F 23.0 °F 60% 29.94 in 10.0 mi WNW 4.6 mph - N/A   Overcast
5:13 PM 35.6 °F 32.8 °F 21.2 °F 56% 29.94 in 10.0 mi WNW 3.5 mph - N/A   Overcast
5:33 PM 35.6 °F 32.8 °F 23.0 °F 60% 29.94 in 10.0 mi West 3.5 mph - N/A   Overcast
5:53 PM 33.8 °F - 23.0 °F 65% 29.94 in 10.0 mi Calm Calm - N/A   Overcast
6:13 PM 33.8 °F - 23.0 °F 65% 29.94 in 10.0 mi Calm Calm - N/A   Overcast
6:33 PM 30.2 °F - 23.0 °F 75% 29.94 in 10.0 mi Calm Calm - N/A   Mostly Cloudy
6:53 PM 28.4 °F - 23.0 °F 80% 29.93 in 10.0 mi Calm Calm - N/A   Scattered Clouds
7:13 PM 28.4 °F - 23.0 °F 80% 29.94 in 10.0 mi Calm Calm - N/A   Clear
7:33 PM 28.4 °F - 23.0 °F 80% 29.94 in 10.0 mi Calm Calm - N/A   Clear
7:53 PM 28.4 °F - 23.0 °F 80% 29.94 in 10.0 mi Calm Calm - N/A   Clear
8:13 PM 28.4 °F - 23.0 °F 80% 29.93 in 10.0 mi Calm Calm - N/A   Clear
8:33 PM 28.4 °F - 23.0 °F 80% 29.93 in 10.0 mi Calm Calm - N/A   Scattered Clouds
8:53 PM 28.4 °F - 23.0 °F 80% 29.93 in 10.0 mi Calm Calm - N/A   Mostly Cloudy
9:13 PM 30.2 °F 24.3 °F 24.8 °F 80% 29.93 in 10.0 mi West 5.8 mph - N/A   Overcast
9:33 PM 30.2 °F 22.6 °F 24.8 °F 80% 29.93 in 10.0 mi WNW 8.1 mph - N/A   Overcast
9:53 PM 30.2 °F 22.6 °F 26.6 °F 86% 29.93 in 10.0 mi WNW 8.1 mph - N/A   Overcast
10:13 PM 30.2 °F 23.4 °F 26.6 °F 86% 29.93 in 10.0 mi WNW 6.9 mph - N/A   Overcast
10:33 PM 30.2 °F 22.6 °F 26.6 °F 86% 29.93 in 10.0 mi WNW 8.1 mph - N/A   Overcast
10:53 PM 30.2 °F 21.9 °F 26.6 °F 86% 29.93 in 10.0 mi WNW 9.2 mph - N/A   Overcast
11:13 PM 30.2 °F 21.3 °F 28.4 °F 93% 29.92 in 7.0 mi WNW 10.4 mph 16.1 mph N/A Snow Light Snow
11:33 PM 30.2 °F 22.6 °F 26.6 °F 86% 29.92 in 10.0 mi WNW 8.1 mph - N/A   Overcast
11:53 PM 30.2 °F 23.4 °F 26.6 °F 86% 29.92 in 10.0 mi West 6.9 mph - N/A   Overcast